Weather in Shah Alam

Malaysia     3°03′40″N   101°30′44″E
temp.,
°C
wind,
m/s
gust,
m/s
humid.,
%
clouds,
%
prec.,
mm/h
press.,
hPa
HPBL,
m
14 may, fri
fri1423:00+25nnw119598 3.8 100721
02:00+25se0093100 4.6 100712
05:00+25n1194100 0.1 100516
08:00+25n129261 0.3 100755
11:00+30wnw117498 1.4 1008696
14:00+31wsw226686 2.4 10061196
17:00+30w337161 0.6 1004880
20:00+26w229188 1.7 100622
15 may, sat
sat1523:00+25nw119198 0.1 100814
02:00+25n009383 0.1 100712
05:00+24n119499 0.5 100613
08:00+26ne019181 0.6 100758
11:00+30w11755 3.3 1008301
14:00+32ssw22657 4.9 10061159
17:00+31w217164 1.1 1004846
20:00+26w228886 1.8 100619
16 may, sun
sun1623:00+25n0091100 2.5 100812
02:00+25e1192100 2.6 100711
05:00+24ese019319 0.1 100612
08:00+25e009164 0.3 100849
11:00+29ssw117663 1.6 1009603
14:00+31sw116956 3.2 10061016
17:00+30w127563 2.7 1005835
20:00+26wnw118835 3.6 100712
17 may, mon
mon1723:00+25nnw119099 0.0 100812
02:00+25nnw119369 0.5 100715
05:00+24nnw119658 5.4 100715
08:00+25n1293100 5.6 100870
11:00+29wsw1176100 1.8 1009548
14:00+31wsw2266100 2.0 10071104
17:00+29wsw3378100 0.3 1005458
20:00+26w0187100 0.8 100714
18 may, tue
tue1823:00+25sse0089100 0.0 100913
02:00+25sse1190100 0.0 100812
05:00+25sse119190 0.4 100719
08:00+25se139390 1.7 1009105
11:00+29sw237980 3.7 1010656
14:00+29ssw227770 7.3 1007893
17:00+29nnw227899 0.8 1005567
20:00+26nw1189100 0.8 100721